Powrót do katalogu

STARLINK-1730

AktywnyŁącznośćVLEO
NORAD 46563·PAYLOAD·🇺🇸 United States

Wystrzelony Oct 6, 2020 z Cape Canaveral Space Force Station

Loading…

Następne Przeloty (najbliższe 24 godziny)

TLE

ŚwieżeSource: CelesTrak SupGP

Epoka: Sep 14, 2026, 22:16 UTC

1 46563C 20070AH  26257.92826389  .00191290  00000+0  10107-2 0  2571
2 46563  53.0152 277.9995 0004201  14.6902  50.0232 15.79801600    19

Śledź STARLINK-1730 w czasie rzeczywistym z AllMySat

Download on the App Store